CBY01 VTBD-VTUU

Flight info

Callsign CBY01
Flight time 1h 16m
Altitude 17000
Route ROBKA3C ROBKA A1 VENPO VENPO1D
Aircraft AT76/M-SDFGIRY/S

Departure

Time 2026-05-05 06:50
Airport Don Mueang International Airport (VTBD)

Arrival

Time 2026-05-05 08:07
Airport Ubon Ratchathani Airport (VTUU)
Time Latitude Longitude Altitude Speed Heading
2026-05-05 06:42 13.91144 100.61063 14 ft 0 kts 209°
2026-05-05 06:45 13.91141 100.61061 14 ft 1 kts 215°
2026-05-05 06:46 13.91142 100.61054 37 ft 2 kts 274°
2026-05-05 06:46 13.91155 100.61041 15 ft 6 kts 327°
2026-05-05 06:46 13.91208 100.61033 14 ft 6 kts 355°
2026-05-05 06:46 13.91259 100.61037 14 ft 8 kts 22°
2026-05-05 06:47 13.91313 100.61068 14 ft 10 kts 30°
2026-05-05 06:47 13.91379 100.61107 14 ft 12 kts 30°
2026-05-05 06:47 13.91453 100.61151 14 ft 12 kts 30°
2026-05-05 06:47 13.91531 100.61197 15 ft 15 kts 30°
2026-05-05 06:48 13.91635 100.61259 14 ft 24 kts 31°
2026-05-05 06:48 13.91791 100.61352 16 ft 37 kts 31°
2026-05-05 06:48 13.92001 100.61474 13 ft 32 kts 30°
2026-05-05 06:48 13.92179 100.61575 13 ft 25 kts 28°
2026-05-05 06:49 13.92315 100.61651 13 ft 19 kts 17°
2026-05-05 06:49 13.92394 100.61566 11 ft 18 kts 287°
2026-05-05 06:49 13.92313 100.61475 11 ft 24 kts 209°
2026-05-05 06:49 13.91996 100.61298 14 ft 79 kts 209°
2026-05-05 06:50 13.91366 100.60943 14 ft 125 kts 208°
2026-05-05 06:50 13.90507 100.60457 130 ft 151 kts 209°
2026-05-05 06:50 13.89557 100.59916 546 ft 159 kts 208°
2026-05-05 06:50 13.88547 100.59362 943 ft 169 kts 206°
2026-05-05 06:51 13.87475 100.58792 1360 ft 175 kts 207°
2026-05-05 06:51 13.86428 100.58187 1750 ft 172 kts 218°
2026-05-05 06:51 13.85876 100.57149 2187 ft 167 kts 261°
2026-05-05 06:51 13.85706 100.55927 2417 ft 180 kts 262°
2026-05-05 06:52 13.85512 100.54573 2462 ft 200 kts 261°
2026-05-05 06:52 13.85276 100.53133 2668 ft 206 kts 259°
2026-05-05 06:52 13.84978 100.51703 2940 ft 207 kts 256°
2026-05-05 06:52 13.84625 100.50265 3199 ft 207 kts 255°
2026-05-05 06:53 13.84234 100.48829 3455 ft 208 kts 253°
2026-05-05 06:53 13.83609 100.47505 3732 ft 207 kts 228°
2026-05-05 06:53 13.82589 100.46438 3995 ft 209 kts 223°
2026-05-05 06:53 13.81535 100.45396 4209 ft 210 kts 224°
2026-05-05 06:54 13.80487 100.44342 4496 ft 211 kts 224°
2026-05-05 06:54 13.79457 100.43283 4756 ft 212 kts 225°
2026-05-05 06:54 13.78390 100.42236 4961 ft 212 kts 212°
2026-05-05 06:54 13.76991 100.41836 5146 ft 210 kts 182°
2026-05-05 06:55 13.75546 100.41866 5337 ft 210 kts 174°
2026-05-05 06:55 13.74086 100.42025 5528 ft 211 kts 172°
2026-05-05 06:55 13.72623 100.42218 5787 ft 212 kts 171°
2026-05-05 06:55 13.71157 100.42409 5967 ft 213 kts 172°
2026-05-05 06:56 13.69677 100.42568 6184 ft 213 kts 173°
2026-05-05 06:56 13.68214 100.42713 6395 ft 213 kts 173°
2026-05-05 06:56 13.66730 100.42851 6573 ft 214 kts 173°
2026-05-05 06:56 13.65248 100.43042 6759 ft 213 kts 161°
2026-05-05 06:57 13.64104 100.43945 6915 ft 211 kts 120°
2026-05-05 06:57 13.63822 100.45402 7079 ft 212 kts 80°
2026-05-05 06:57 13.64485 100.46720 7206 ft 212 kts 51°
2026-05-05 06:57 13.65392 100.47921 7344 ft 213 kts 60°
2026-05-05 06:58 13.66095 100.49266 7495 ft 214 kts 64°
2026-05-05 06:58 13.66772 100.50634 7678 ft 214 kts 63°
2026-05-05 06:58 13.67471 100.51995 7849 ft 215 kts 62°
2026-05-05 06:58 13.68202 100.53321 8028 ft 216 kts 60°
2026-05-05 06:59 13.68959 100.54660 8198 ft 216 kts 60°
2026-05-05 06:59 13.69717 100.56001 8382 ft 216 kts 60°
2026-05-05 06:59 13.70473 100.57341 8554 ft 217 kts 60°
2026-05-05 06:59 13.71222 100.58677 8705 ft 218 kts 60°
2026-05-05 07:00 13.71986 100.60029 8862 ft 218 kts 60°
2026-05-05 07:00 13.72751 100.61385 9031 ft 219 kts 60°
2026-05-05 07:00 13.73516 100.62747 9178 ft 219 kts 60°
2026-05-05 07:00 13.74270 100.64090 9303 ft 220 kts 60°
2026-05-05 07:01 13.75036 100.65453 9470 ft 220 kts 60°
2026-05-05 07:01 13.75804 100.66821 9611 ft 221 kts 60°
2026-05-05 07:01 13.76568 100.68174 9859 ft 216 kts 60°
2026-05-05 07:01 13.77321 100.69511 9997 ft 215 kts 61°
2026-05-05 07:02 13.77819 100.70398 10093 ft 216 kts 60°
2026-05-05 07:02 13.78825 100.72190 10245 ft 216 kts 60°
2026-05-05 07:02 13.79327 100.73082 10329 ft 216 kts 60°
2026-05-05 07:02 13.80083 100.74430 10465 ft 217 kts 60°
2026-05-05 07:03 13.81086 100.76213 10638 ft 218 kts 60°
2026-05-05 07:03 13.81588 100.77109 10723 ft 218 kts 61°
2026-05-05 07:03 13.82347 100.78458 10843 ft 218 kts 61°
2026-05-05 07:03 13.83358 100.80260 11011 ft 219 kts 60°
2026-05-05 07:04 13.83874 100.81175 11081 ft 219 kts 60°
2026-05-05 07:04 13.84638 100.82534 11192 ft 219 kts 60°
2026-05-05 07:04 13.85394 100.83885 11311 ft 220 kts 60°
2026-05-05 07:04 13.86162 100.85252 11463 ft 220 kts 61°
2026-05-05 07:05 13.86930 100.86623 11565 ft 221 kts 61°
2026-05-05 07:05 13.87699 100.87995 11677 ft 222 kts 61°
2026-05-05 07:05 13.88472 100.89375 11800 ft 222 kts 61°
2026-05-05 07:05 13.89235 100.90738 11906 ft 222 kts 61°
2026-05-05 07:06 13.90023 100.92139 12016 ft 223 kts 61°
2026-05-05 07:06 13.90788 100.93506 12105 ft 223 kts 61°
2026-05-05 07:06 13.91578 100.94910 12229 ft 224 kts 60°
2026-05-05 07:06 13.92347 100.96279 12376 ft 224 kts 61°
2026-05-05 07:07 13.93127 100.97677 12489 ft 225 kts 61°
2026-05-05 07:07 13.93909 100.99072 12595 ft 225 kts 61°
2026-05-05 07:07 13.94692 101.00472 12709 ft 226 kts 61°
2026-05-05 07:07 13.95478 101.01873 12793 ft 226 kts 61°
2026-05-05 07:08 13.95884 101.02601 12845 ft 227 kts 61°
2026-05-05 07:08 13.96673 101.04008 12939 ft 227 kts 61°
2026-05-05 07:08 13.97463 101.05421 13043 ft 227 kts 61°
2026-05-05 07:08 13.98254 101.06836 13151 ft 228 kts 61°
2026-05-05 07:09 13.99046 101.08251 13233 ft 228 kts 61°
2026-05-05 07:09 13.99829 101.09649 13322 ft 229 kts 61°
2026-05-05 07:09 14.00624 101.11070 13418 ft 229 kts 61°
2026-05-05 07:09 14.01420 101.12494 13487 ft 230 kts 61°
2026-05-05 07:10 14.02219 101.13922 13607 ft 230 kts 60°
2026-05-05 07:10 14.03024 101.15352 13833 ft 231 kts 61°
2026-05-05 07:10 14.03827 101.16789 14037 ft 232 kts 61°
2026-05-05 07:10 14.04630 101.18232 14228 ft 233 kts 61°
2026-05-05 07:11 14.05439 101.19681 14430 ft 234 kts 61°
2026-05-05 07:11 14.06250 101.21135 14620 ft 235 kts 61°
2026-05-05 07:11 14.07068 101.22602 14809 ft 235 kts 60°
2026-05-05 07:11 14.07886 101.24066 15000 ft 236 kts 60°
2026-05-05 07:12 14.08708 101.25538 15180 ft 238 kts 60°
2026-05-05 07:12 14.09535 101.27020 15369 ft 238 kts 60°
2026-05-05 07:12 14.10354 101.28487 15534 ft 239 kts 61°
2026-05-05 07:12 14.11183 101.29975 15718 ft 240 kts 60°
2026-05-05 07:13 14.12020 101.31469 15892 ft 241 kts 60°
2026-05-05 07:13 14.12855 101.32968 16062 ft 242 kts 60°
2026-05-05 07:13 14.13695 101.34474 16230 ft 242 kts 60°
2026-05-05 07:13 14.14536 101.35982 16393 ft 243 kts 60°
2026-05-05 07:14 14.15382 101.37498 16555 ft 244 kts 60°
2026-05-05 07:14 14.16226 101.39012 16739 ft 243 kts 60°
2026-05-05 07:14 14.17065 101.40522 16823 ft 248 kts 60°
2026-05-05 07:14 14.17926 101.42073 16870 ft 252 kts 62°
2026-05-05 07:15 14.18640 101.43759 16891 ft 258 kts 71°
2026-05-05 07:15 14.19205 101.45537 16902 ft 264 kts 73°
2026-05-05 07:15 14.19752 101.47345 16905 ft 264 kts 73°
2026-05-05 07:15 14.20320 101.49136 16906 ft 262 kts 71°
2026-05-05 07:16 14.20927 101.50904 16906 ft 260 kts 70°
2026-05-05 07:16 14.21534 101.52657 16910 ft 259 kts 71°
2026-05-05 07:16 14.22135 101.54405 16914 ft 259 kts 71°
2026-05-05 07:16 14.22734 101.56153 16912 ft 258 kts 71°
2026-05-05 07:17 14.23336 101.57898 16914 ft 258 kts 71°
2026-05-05 07:17 14.23925 101.59616 16915 ft 257 kts 71°
2026-05-05 07:17 14.24522 101.61359 16912 ft 257 kts 71°
2026-05-05 07:17 14.25118 101.63093 16915 ft 257 kts 71°
2026-05-05 07:18 14.25713 101.64830 16917 ft 256 kts 71°
2026-05-05 07:18 14.26307 101.66559 16920 ft 256 kts 71°
2026-05-05 07:18 14.26899 101.68287 16921 ft 256 kts 71°
2026-05-05 07:18 14.27494 101.70022 16918 ft 255 kts 71°
2026-05-05 07:19 14.28086 101.71748 16916 ft 255 kts 71°
2026-05-05 07:19 14.28667 101.73449 16925 ft 255 kts 71°
2026-05-05 07:19 14.29260 101.75177 16925 ft 255 kts 71°
2026-05-05 07:19 14.29851 101.76904 16920 ft 255 kts 71°
2026-05-05 07:20 14.30441 101.78626 16920 ft 255 kts 71°
2026-05-05 07:20 14.31030 101.80349 16926 ft 255 kts 71°
2026-05-05 07:20 14.31620 101.82074 16925 ft 255 kts 71°
2026-05-05 07:20 14.32211 101.83801 16924 ft 255 kts 71°
2026-05-05 07:21 14.32800 101.85525 16927 ft 255 kts 71°
2026-05-05 07:21 14.33391 101.87251 16929 ft 255 kts 71°
2026-05-05 07:21 14.33979 101.88982 16927 ft 255 kts 71°
2026-05-05 07:21 14.34572 101.90713 16929 ft 255 kts 71°
2026-05-05 07:22 14.35157 101.92422 16929 ft 256 kts 71°
2026-05-05 07:22 14.35746 101.94152 16927 ft 256 kts 71°
2026-05-05 07:22 14.36337 101.95884 16922 ft 256 kts 71°
2026-05-05 07:22 14.36929 101.97619 16924 ft 256 kts 71°
2026-05-05 07:23 14.37519 101.99352 16927 ft 256 kts 71°
2026-05-05 07:23 14.38111 102.01085 16926 ft 256 kts 71°
2026-05-05 07:23 14.38701 102.02817 16926 ft 256 kts 71°
2026-05-05 07:23 14.39294 102.04553 16928 ft 255 kts 71°
2026-05-05 07:24 14.39881 102.06279 16930 ft 255 kts 71°
2026-05-05 07:24 14.40461 102.07987 16926 ft 256 kts 71°
2026-05-05 07:24 14.41052 102.09721 16925 ft 256 kts 71°
2026-05-05 07:24 14.41642 102.11456 16926 ft 256 kts 71°
2026-05-05 07:25 14.42232 102.13190 16925 ft 256 kts 71°
2026-05-05 07:25 14.42823 102.14925 16929 ft 256 kts 71°
2026-05-05 07:25 14.43412 102.16663 16929 ft 257 kts 71°
2026-05-05 07:25 14.44005 102.18399 16927 ft 257 kts 71°
2026-05-05 07:26 14.44597 102.20142 16927 ft 257 kts 71°
2026-05-05 07:26 14.45185 102.21877 16930 ft 257 kts 71°
2026-05-05 07:26 14.45776 102.23615 16923 ft 257 kts 71°
2026-05-05 07:26 14.46366 102.25354 16926 ft 257 kts 71°
2026-05-05 07:27 14.46957 102.27092 16924 ft 257 kts 71°
2026-05-05 07:27 14.47548 102.28833 16926 ft 257 kts 71°
2026-05-05 07:27 14.48130 102.30551 16921 ft 257 kts 71°
2026-05-05 07:27 14.48721 102.32292 16923 ft 257 kts 71°
2026-05-05 07:28 14.49311 102.34034 16931 ft 257 kts 71°
2026-05-05 07:28 14.49903 102.35784 16926 ft 258 kts 71°
2026-05-05 07:28 14.50498 102.37535 16915 ft 259 kts 71°
2026-05-05 07:28 14.51092 102.39287 16917 ft 258 kts 72°
2026-05-05 07:29 14.51686 102.41039 16916 ft 258 kts 71°
2026-05-05 07:29 14.52278 102.42786 16919 ft 258 kts 71°
2026-05-05 07:29 14.52870 102.44537 16918 ft 258 kts 71°
2026-05-05 07:29 14.53461 102.46284 16919 ft 258 kts 72°
2026-05-05 07:30 14.54052 102.48031 16915 ft 258 kts 72°
2026-05-05 07:30 14.55227 102.51501 16920 ft 258 kts 72°
2026-05-05 07:30 14.55818 102.53251 16920 ft 258 kts 72°
2026-05-05 07:31 14.56408 102.54998 16919 ft 258 kts 72°
2026-05-05 07:31 14.57000 102.56752 16917 ft 258 kts 72°
2026-05-05 07:31 14.57590 102.58499 16918 ft 258 kts 72°
2026-05-05 07:31 14.58180 102.60249 16913 ft 258 kts 72°
2026-05-05 07:32 14.58774 102.62004 16918 ft 258 kts 72°
2026-05-05 07:32 14.59366 102.63754 16917 ft 258 kts 72°
2026-05-05 07:32 14.59956 102.65503 16918 ft 258 kts 72°
2026-05-05 07:32 14.60547 102.67257 16917 ft 258 kts 72°
2026-05-05 07:33 14.61131 102.68982 16917 ft 258 kts 72°
2026-05-05 07:33 14.61721 102.70734 16914 ft 258 kts 72°
2026-05-05 07:33 14.62310 102.72483 16913 ft 258 kts 72°
2026-05-05 07:33 14.62899 102.74230 16915 ft 258 kts 72°
2026-05-05 07:34 14.63486 102.75980 16914 ft 257 kts 72°
2026-05-05 07:34 14.64075 102.77729 16915 ft 257 kts 72°
2026-05-05 07:34 14.64665 102.79474 16916 ft 258 kts 72°
2026-05-05 07:34 14.65253 102.81225 16913 ft 258 kts 72°
2026-05-05 07:35 14.65840 102.82977 16915 ft 258 kts 72°
2026-05-05 07:35 14.66430 102.84725 16910 ft 258 kts 72°
2026-05-05 07:35 14.67010 102.86455 16915 ft 258 kts 72°
2026-05-05 07:35 14.67598 102.88204 16913 ft 257 kts 72°
2026-05-05 07:36 14.68187 102.89954 16915 ft 258 kts 72°
2026-05-05 07:36 14.68774 102.91705 16916 ft 258 kts 72°
2026-05-05 07:36 14.69361 102.93458 16912 ft 258 kts 72°
2026-05-05 07:36 14.69951 102.95213 16914 ft 258 kts 72°
2026-05-05 07:37 14.70539 102.96964 16913 ft 258 kts 72°
2026-05-05 07:37 14.71117 102.98694 16911 ft 258 kts 72°
2026-05-05 07:37 14.71704 103.00443 16912 ft 258 kts 72°
2026-05-05 07:37 14.72292 103.02195 16912 ft 258 kts 72°
2026-05-05 07:38 14.72880 103.03947 16914 ft 258 kts 72°
2026-05-05 07:38 14.73467 103.05704 16918 ft 258 kts 72°
2026-05-05 07:38 14.74053 103.07458 16915 ft 259 kts 72°
2026-05-05 07:38 14.74645 103.09220 16911 ft 260 kts 72°
2026-05-05 07:39 14.75235 103.10982 16907 ft 260 kts 72°
2026-05-05 07:39 14.75827 103.12748 16909 ft 259 kts 72°
2026-05-05 07:39 14.76417 103.14513 16910 ft 259 kts 72°
2026-05-05 07:39 14.76999 103.16257 16912 ft 259 kts 72°
2026-05-05 07:40 14.77587 103.18017 16911 ft 259 kts 72°
2026-05-05 07:40 14.78175 103.19777 16912 ft 259 kts 72°
2026-05-05 07:40 14.78765 103.21540 16912 ft 259 kts 72°
2026-05-05 07:40 14.79347 103.23281 16911 ft 259 kts 72°
2026-05-05 07:41 14.79934 103.25041 16910 ft 259 kts 72°
2026-05-05 07:41 14.80522 103.26801 16915 ft 259 kts 72°
2026-05-05 07:41 14.81110 103.28563 16924 ft 260 kts 72°
2026-05-05 07:41 14.81702 103.30340 16922 ft 262 kts 72°
2026-05-05 07:42 14.82291 103.32112 16917 ft 264 kts 72°
2026-05-05 07:42 14.82894 103.33919 16910 ft 265 kts 72°
2026-05-05 07:42 14.83499 103.35725 16896 ft 264 kts 72°
2026-05-05 07:42 14.84098 103.37521 16905 ft 264 kts 72°
2026-05-05 07:43 14.84694 103.39312 16905 ft 263 kts 72°
2026-05-05 07:43 14.85283 103.41081 16904 ft 263 kts 72°
2026-05-05 07:43 14.85872 103.42870 16904 ft 262 kts 73°
2026-05-05 07:43 14.86422 103.44662 16904 ft 261 kts 74°
2026-05-05 07:44 14.86931 103.46466 16906 ft 261 kts 76°
2026-05-05 07:44 14.87420 103.48272 16904 ft 260 kts 75°
2026-05-05 07:44 14.87910 103.50074 16906 ft 260 kts 75°
2026-05-05 07:44 14.88399 103.51872 16918 ft 260 kts 75°
2026-05-05 07:45 14.88884 103.53662 16937 ft 263 kts 76°
2026-05-05 07:45 14.89381 103.55493 16924 ft 266 kts 76°
2026-05-05 07:45 14.89886 103.57348 16888 ft 267 kts 75°
2026-05-05 07:45 14.90389 103.59195 16884 ft 266 kts 75°
2026-05-05 07:46 14.90888 103.61032 16892 ft 264 kts 75°
2026-05-05 07:46 14.91379 103.62839 16900 ft 263 kts 76°
2026-05-05 07:46 14.91874 103.64666 16897 ft 263 kts 76°
2026-05-05 07:46 14.92368 103.66484 16901 ft 262 kts 76°
2026-05-05 07:47 14.92860 103.68292 16903 ft 261 kts 75°
2026-05-05 07:47 14.93349 103.70102 16898 ft 261 kts 75°
2026-05-05 07:47 14.93839 103.71907 16899 ft 260 kts 75°
2026-05-05 07:47 14.94328 103.73709 16901 ft 260 kts 76°
2026-05-05 07:48 14.94810 103.75491 16899 ft 260 kts 76°
2026-05-05 07:48 14.95299 103.77289 16898 ft 260 kts 75°
2026-05-05 07:48 14.95791 103.79086 16898 ft 260 kts 75°
2026-05-05 07:48 14.96276 103.80888 16902 ft 260 kts 76°
2026-05-05 07:49 14.96599 103.82106 16900 ft 259 kts 76°
2026-05-05 07:49 14.97072 103.83869 16900 ft 259 kts 75°
2026-05-05 07:49 14.97565 103.85684 16896 ft 259 kts 75°
2026-05-05 07:49 14.98051 103.87482 16899 ft 259 kts 75°
2026-05-05 07:50 14.98537 103.89285 16901 ft 260 kts 75°
2026-05-05 07:50 14.99183 103.91675 16898 ft 260 kts 75°
2026-05-05 07:50 14.99512 103.92897 16906 ft 261 kts 75°
2026-05-05 07:50 14.99992 103.94682 16899 ft 261 kts 75°
2026-05-05 07:51 15.00480 103.96488 16891 ft 261 kts 75°
2026-05-05 07:51 15.00969 103.98307 16893 ft 261 kts 75°
2026-05-05 07:51 15.01456 104.00112 16897 ft 260 kts 75°
2026-05-05 07:51 15.01943 104.01915 16897 ft 260 kts 76°
2026-05-05 07:52 15.02425 104.03717 16895 ft 260 kts 75°
2026-05-05 07:52 15.02912 104.05521 16894 ft 260 kts 75°
2026-05-05 07:52 15.03391 104.07300 16857 ft 261 kts 75°
2026-05-05 07:52 15.03876 104.09100 16636 ft 256 kts 75°
2026-05-05 07:53 15.04379 104.10850 16384 ft 252 kts 68°
2026-05-05 07:53 15.05363 104.12344 15974 ft 254 kts 50°
2026-05-05 07:53 15.06534 104.13765 15524 ft 261 kts 50°
2026-05-05 07:53 15.07670 104.15228 15312 ft 257 kts 54°
2026-05-05 07:54 15.08677 104.16716 15067 ft 255 kts 57°
2026-05-05 07:54 15.09642 104.18270 14774 ft 256 kts 58°
2026-05-05 07:54 15.10590 104.19809 14637 ft 250 kts 58°
2026-05-05 07:54 15.11513 104.21299 14568 ft 241 kts 58°
2026-05-05 07:55 15.12413 104.22729 14533 ft 233 kts 57°
2026-05-05 07:55 15.13308 104.24135 14270 ft 237 kts 57°
2026-05-05 07:55 15.14223 104.25569 13935 ft 245 kts 57°
2026-05-05 07:55 15.15174 104.27064 13561 ft 252 kts 57°
2026-05-05 07:56 15.16151 104.28597 13153 ft 257 kts 57°
2026-05-05 07:56 15.17152 104.30169 12635 ft 264 kts 57°
2026-05-05 07:56 15.18176 104.31779 12118 ft 270 kts 57°
2026-05-05 07:56 15.19217 104.33416 11608 ft 273 kts 57°
2026-05-05 07:57 15.19997 104.35150 11117 ft 270 kts 80°
2026-05-05 07:57 15.20053 104.37092 10650 ft 270 kts 96°
2026-05-05 07:57 15.19766 104.39013 10187 ft 270 kts 101°
2026-05-05 07:57 15.19391 104.40932 9722 ft 271 kts 101°
2026-05-05 07:58 15.19022 104.42823 9221 ft 271 kts 101°
2026-05-05 07:58 15.18689 104.44754 8724 ft 269 kts 99°
2026-05-05 07:58 15.18392 104.46664 8223 ft 267 kts 99°
2026-05-05 07:58 15.18095 104.48540 7748 ft 266 kts 99°
2026-05-05 07:59 15.17795 104.50427 7271 ft 264 kts 99°
2026-05-05 07:59 15.17493 104.52298 6805 ft 263 kts 99°
2026-05-05 07:59 15.17192 104.54125 6339 ft 247 kts 100°
2026-05-05 07:59 15.16907 104.55819 5846 ft 231 kts 100°
2026-05-05 08:00 15.16640 104.57403 5364 ft 221 kts 100°
2026-05-05 08:00 15.16373 104.58941 4880 ft 213 kts 100°
2026-05-05 08:00 15.16108 104.60432 4407 ft 208 kts 101°
2026-05-05 08:00 15.15853 104.61870 4069 ft 198 kts 101°
2026-05-05 08:01 15.15610 104.63246 3760 ft 192 kts 101°
2026-05-05 08:01 15.15370 104.64596 3662 ft 191 kts 101°
2026-05-05 08:01 15.15125 104.65976 3527 ft 199 kts 101°
2026-05-05 08:01 15.14870 104.67395 3375 ft 205 kts 101°
2026-05-05 08:02 15.14606 104.68856 3165 ft 208 kts 101°
2026-05-05 08:02 15.14339 104.70346 2955 ft 212 kts 100°
2026-05-05 08:02 15.14096 104.71856 2730 ft 211 kts 93°
2026-05-05 08:02 15.14474 104.73297 2528 ft 207 kts 59°
2026-05-05 08:03 15.15236 104.74431 2409 ft 181 kts 51°
2026-05-05 08:03 15.15988 104.75378 2326 ft 162 kts 49°
2026-05-05 08:03 15.16703 104.76245 2229 ft 154 kts 49°
2026-05-05 08:03 15.17361 104.77048 2140 ft 136 kts 49°
2026-05-05 08:04 15.17937 104.77750 2033 ft 119 kts 49°
2026-05-05 08:04 15.18467 104.78393 1964 ft 118 kts 49°
2026-05-05 08:04 15.18990 104.79055 1848 ft 122 kts 51°
2026-05-05 08:04 15.19515 104.79775 1724 ft 128 kts 52°
2026-05-05 08:05 15.20069 104.80512 1538 ft 128 kts 51°
2026-05-05 08:05 15.20608 104.81222 1382 ft 125 kts 50°
2026-05-05 08:05 15.21158 104.81920 1273 ft 124 kts 50°
2026-05-05 08:05 15.21695 104.82617 1162 ft 124 kts 50°
2026-05-05 08:06 15.22240 104.83310 1026 ft 123 kts 50°
2026-05-05 08:06 15.22773 104.84000 891 ft 124 kts 50°
2026-05-05 08:06 15.23306 104.84682 767 ft 123 kts 50°
2026-05-05 08:06 15.23846 104.85382 577 ft 124 kts 49°
2026-05-05 08:07 15.24384 104.86077 409 ft 122 kts 49°
2026-05-05 08:07 15.24749 104.86545 407 ft 34 kts 52°
2026-05-05 08:07 15.24853 104.86678 406 ft 20 kts 39°
2026-05-05 08:07 15.24969 104.86643 403 ft 18 kts 322°
2026-05-05 08:08 15.25040 104.86582 403 ft 3 kts 292°
2026-05-05 08:08 15.25025 104.86544 403 ft 11 kts 227°
2026-05-05 08:08 15.24971 104.86474 403 ft 7 kts 233°
2026-05-05 08:08 15.24930 104.86409 403 ft 13 kts 260°
2026-05-05 08:09 15.24971 104.86335 403 ft 11 kts 299°
2026-05-05 08:09 15.24986 104.86312 403 ft 0 kts 289°
2026-05-05 08:09 15.24964 104.86281 403 ft 11 kts 230°
2026-05-05 08:09 15.24973 104.86252 403 ft 4 kts 335°
2026-05-05 08:10 15.24987 104.86256 403 ft 1 kts 46°
2026-05-05 08:10 15.24992 104.86262 413 ft 0 kts 51°